Regional Weather Roundup
Issued by NWS State College, PA

Home | Current Version | Previous Version | Graphics & Text | Print | Product List | Glossary Off
Versions: 1 2 3 4 5 6 7 8 9 10 11 12 13 14 15 16 17 18 19 20 21 22 23 24 25 26 27 28 29 30 31 32 33 34 35 36 37 38 39 40 41 42 43 44 45 46 47 48 49 50

000
ASUS41 KCTP 030110
RWRCTP

REGIONAL WEATHER ROUNDUP
NATIONAL WEATHER SERVICE STATE COLLEGE PA
900 PM EDT WED SEP 02 2015

Note: "fair" indicates few or no clouds below 12,000 feet with no
significant weather and/or obstructions to visibility.

* = STATION THAT DOES NOT REPORT PRECIPITATION /E.G. RAIN...SNOW...ETC/
    THUNDER OR FOG.

PAZ002>004-007>009-013>016-020>023-029>032-030200-
WESTERN PENNSYLVANIA

CITY           SKY/WX    TMP DP  RH WIND       PRES   REMARKS
ERIE           CLEAR     74  67  78 S3        29.98R
MEADVILLE      CLEAR     76  66  71 N3        30.02R
FRANKLIN*      CLEAR     72  64  78 CALM      30.04R
NEW CASTLE     FAIR      73  68  84 CALM      30.01R
BEAVER COUNTY  PTCLDY    75  64  69 W3        30.01S
BUTLER*        PTCLDY    75  64  69 CALM      30.02R
PITTSBURGH INT MOCLDY    77  65  66 W7        30.00R
PITTSBURGH     PTCLDY    78  63  59 SW9       29.99R
INDIANA*       PTCLDY    73  68  83 CALM      30.04R
LATROBE        PTCLDY    75  68  78 S5        30.00S
WASHINGTON CO* CLEAR     73  66  78 CALM      30.02R
$$

PAZ004>006-010>012-017>019-024>028-033>037-041-042-045-046-049>053-030200-
CENTRAL PENNSYLVANIA

CITY           SKY/WX    TMP DP  RH WIND       PRES   REMARKS
BRADFORD       PTCLDY    70  65  84 CALM      30.04R
DUBOIS         CLEAR     75  70  84 W5        30.01S HAZE
CLEARFIELD     CLEAR     75  66  73 NW3       30.01R
JOHNSTOWN      CLEAR     74  63  68 W5        30.05S
ALTOONA        CLEAR     69  66  90 S3        30.01S FOG
STATE COLLEGE  CLEAR     72  66  83 CALM      29.98F
WILLIAMSPORT   PTCLDY    76  70  82 N3        29.92S
SELINSGROVE    CLEAR     71  69  93 CALM      29.93S FOG
FT INDIANTOWN  CLEAR     73  67  83 NE2       29.93R
CAPITAL CITY   CLEAR     79  66  64 SW6       29.93R
HARRISBURG     PTCLDY    78  68  71 NW7       29.92R
YORK           CLEAR     71  68  90 CALM      29.94R
$$

PAZ038>040-043-044-047-048-054-055-060>062-067>071-030200-
EASTERN PENNSYLVANIA

CITY           SKY/WX    TMP DP  RH WIND       PRES   REMARKS
SCRANTON       CLEAR     76  64  66 E7        29.95S
MOUNT POCONO   CLEAR     68  64  87 NW3       30.00S
ALLENTOWN      CLEAR     78  65  63 NW3       29.91S
QUAKERTOWN*    PTCLDY    75  66  73 CALM      29.93S
READING        CLEAR     78  66  66 CALM      29.91R
LANCASTER      CLEAR     78  65  63 CALM      29.93R
COATESVILLE    CLEAR     75  63  64 NW6       29.94F
POTTSTOWN      CLEAR     76  66  71 CALM      29.93R
BLUE BELL      PTCLDY    77  68  73 CALM      29.90S
DOYLESTOWN     CLEAR     74  68  81 CALM      29.91R
WILLOW GROVE   NOT AVBL
NORTH PHILA    CLEAR     84  60  44 W6        29.91R
PHILADELPHIA   PTCLDY    85  63  47 SW5       29.90S
$$


USA.gov is the U.S. government's official web portal to all federal, state and local government web resources and services.